Location: Bruderhein
(53.8035°N, 112.9265°W)
Time: 01:54:06
(UTC+00:00)

BEESAT - Pass Details

Date: 03 April 2023
Orbit: 696 x 706 km, 98.5° (Epoch: 31 May)

Event Time Altitude Azimuth Distance (km) Brightness Sun altitude
Rises 03:22:42 0° 27° (NNE) 3,113 ? -11.1°
Reaches altitude 10° 03:25:53 10° 50° (NE) 2,187 ? -11.6°
Maximum altitude 03:28:45 16° 87° (E) 1,822 ? -11.9°
Enters shadow 03:29:25 15° 97° (E) 1,841 ? -12.0°
